ECHOSTAR 12 (RAINBOW 1)

导读

EchoStar 12也叫Rainbow 1,是美国的一颗高功率Ku波段通信卫星,于2003年7月17日发射,由洛克希德·马丁公司空间系统部门打造,属于A2100AX型卫星,设计寿命18年,定轨西经61.5度,搭载可编程点波束,可灵活提供美国本土区域或点波束覆盖服务,开展直播到户广播业务。

Basic Information
目录编号:
27852
目录名称:
ECHOSTAR 12 (RAINBOW 1)
国际标识:
2003-033A
轨道中心:
EARTH
卫星名称:
ECHOSTAR 12 (RAINBOW 1)
卫星全名:
--
卫星状态:
在轨 (已飞行8368 天)
发射日期:
2003-07-17 UTC
国别 :
美国 (US)
星等 :
--
Orbit Information
数据来源 国际轨道数据 AOE轨道数据
星历时间 2026-06-14T06:10:55+0800
13小时前
查看轨道信息
2026-06-14T03:00:00+0800
16小时前
查看轨道信息
半长轴 42558.982km 42559.068km
偏心率 0.000718 0.0007082
轨道倾角 6.259° 6.259°
近地点辐角 130.733° 130.766°
升交点赤经 85.660° 85.658°
平近点角 57.490° 10.259°
近地点 36150.287km 36150.79km
远地点 36211.403km 36211.072km
周期 1456.286分钟 1456.290分钟
每日圈数 0.988817 0.988814
Detailed Information
使用方式:
暂无
2D Orbit Map
3D Orbit Map
Orbit Altitude Analysis Chart
Orbit Inclination Analysis Chart
Orbit Comprehensive Analysis Chart
View Comprehensive Chart